www.pogodaiklimat.ru
ПОГОДА в Куала-Лумпур аэропорту
Время
(UTC), дата
15 5.12
18 5.12
21 5.12
00 6.12
03 6.12
06 6.12
09 6.12
12 6.12
15 6.12
18 6.12
21 6.12
00 7.12
03 7.12
06 7.12
09 7.12
12 7.12
15 7.12
18 7.12
21 7.12
00 8.12
03 8.12
06 8.12
09 8.12
12 8.12
15 8.12
18 8.12
21 8.12
00 9.12
03 9.12
06 9.12
09 9.12
12 9.12
15 9.12
18 9.12
21 9.12
00 10.12
03 10.12
06 10.12
09 10.12
12 10.12
15 10.12
18 10.12
21 10.12
00 11.12
03 11.12
06 11.12
09 11.12
12 11.12
15 11.12
18 11.12
21 11.12
00 12.12
03 12.12
06 12.12
09 12.12
12 12.12
Ветер
(напр.,м/с)
Видим. Явления Облачность Т
(С)
Тd
(С)
f
(%)
Тe
(С)
Тes
(С)
Комфортность P
(гПа)
Po
(гПа)
Тmin
(С)
Tmax
(С)
R
(мм)
R24
(мм)
S
(см)
СВ 4 10 км мгла 9/1 900 м
[Sc Ac lent Ci sp]
+27.8 +22.5 73 +37 +37 очень
душно
1012.0 1010.1
СВ 2 10 км мгла 9/1 900 м
[Sc Ac lent Ci sp]
+26.4 +22.0 77 +34 +34 очень
душно
1011.5 1009.6
СВ 2 10 км мгла 9/1 900 м
[Sc Ac lent Ci fib]
+25.6 +21.3 77 +32 +32 очень
душно
1010.0 1008.1
СВ 4 10 км мгла 9/1 50 м
[Cb cap Ac lent Ci fib]
+26.3 +21.3 74 +33 +34 очень
душно
1011.2 1009.3 +25.3 0.0
СВ 3 10 км мгла 9/3 500 м
[Cb cap Ac trans Ci fib]
+30.9 +22.1 59 +40 +44 очень
душно
1012.1 1010.3
СЗ 1 12 км мгла 9/4 540 м
[Cu hum Ac trans Ci sp]
+32.1 +23.2 59 +42 +50 опасность
перегрева
1009.9 1008.1
З 3 10 км осадки на расстоянии 9/4 500 м
[Cb cap Ac trans Ci sp]
+30.3 +24.5 71 +43 +44 опасность
перегрева
1008.0 1006.2
Ю 1 10 км зарница 9/4 500 м
[Cb cap Ac lent Ci sp]
+28.1 +24.7 82 +40 +40 очень
душно
1010.6 1008.8 +33.0
В 2 10 км зарница 9/3 500 м
[Cb cap Ac lent Ci sp]
+27.5 +23.8 80 +38 +38 очень
душно
1012.4 1010.5
С 1 10 км зарница 9/3 500 м
[Cb cap Ac lent Ci sp]
+26.4 +23.6 85 +36 +36 очень
душно
1010.9 1009.0
СВ 5 10 км зарница 9/3 500 м
[Cb cap Ac trans Ci fib]
+26.9 +20.1 66 +33 +33 очень
душно
1009.3 1007.4
СВ 4 10 км мгла 9/3 <50 м
[Cu Sc Ac und Ci fib]
+26.9 +20.4 68 +33 +34 очень
душно
1011.3 1009.4 +26.1 0.0
СВ 4 10 км мгла 9 баллов +29.4 +21.6 63 +37 +38 очень
душно
1012.5 1010.7
С 2 10 км мгла 9/1 540 м
[Cu med, cong Ac lent Ci sp]
+32.1 +22.3 56 +41 +50 опасность
перегрева
1010.0 1008.2
СВ 4 12 км мгла 9/1 540 м
[Cu hum Ac trans Ci sp]
+31.8 +22.2 57 +41 +43 опасность
перегрева
1008.2 1006.4
Ю 1 10 км мгла 9/1 900 м
[Sc Ac lent Ci sp]
+27.5 +23.2 77 +37 +37 очень
душно
1010.8 1008.9 +33.7
СВ 5 10 км зарница 9/3 500 м
[Cb cap Ac lent Ci sp]
+27.5 +22.2 73 +36 +36 очень
душно
1012.6 1010.7
СВ 3 10 км зарница 9/3 500 м
[Cb cap Ac lent Ci sp]
+26.4 +21.9 76 +34 +34 очень
душно
1011.1 1009.2
СВ 4 10 км зарница 9/4 500 м
[Cb cap Ac lent Ci sp]
+26.6 +21.2 72 +34 +34 очень
душно
1010.2 1008.3
СЗ 1 10 км мгла 9/4 50 м
[Cb cap Ac lent Ci sp]
+26.0 +22.5 81 +34 +34 очень
душно
1011.9 1010.0 +25.9 0.0
В 5 10 км мгла 9/3 500 м
[Cb cap Ac lent Ci fib]
+31.8 +22.2 57 +41 +44 опасность
перегрева
1012.9 1011.1
СВ 4 10 км осадки на расстоянии 9/4 500 м
[Cb cap Ac lent Ci fib]
+31.0 +22.9 62 +41 +45 опасность
перегрева
1011.1 1009.3
В 3 10 км мгла 9/4 500 м
[Cb cap Ac lent Ci fib]
+31.4 +23.0 61 +42 +43 опасность
перегрева
1008.9 1007.1
СВ 7 9000 м зарница 9/4 500 м
[Cb cap Ac und Ci sp]
+27.5 +22.2 73 +36 +36 очень
душно
1011.6 1009.7 +32.7
СВ 4 9000 м зарница 9/1 500 м
[Cb cap Ac und Ci sp]
+27.1 +21.9 73 +35 +35 очень
душно
1012.7 1010.8
СВ 2 9000 м зарница 9/1 500 м
[Cb cap Ac lent Ci sp]
+26.5 +21.7 75 +34 +34 очень
душно
1011.5 1009.6
штиль 0 10 км зарница 9/1 500 м
[Cb cap Ac lent Ci sp]
+25.5 +22.5 83 +33 +33 очень
душно
1010.0 1008.1
ЮЗ 1 12 км мгла 9/1 50 м
[Cb cap Ac As Ci sp]
+24.8 +22.4 87 +32 +33 очень
душно
1012.0 1010.1 +24.3 0.0
В 4 10 км мгла 9/4 500 м
[Cb cap Ac lent Ci fib]
+30.5 +22.3 62 +40 +43 очень
душно
1013.1 1011.3
В 4 10 км мгла 9/4 540 м
[Cu Sc Ac lent Ci fib]
+31.1 +23.0 62 +41 +46 опасность
перегрева
1010.9 1009.1
СВ 4 10 км мгла 9/3 540 м
[Cu med, cong Ac lent Ci sp]
+30.3 +22.5 63 +40 +41 очень
душно
1008.6 1006.8
В 5 10 км мгла 9/3 900 м
[Sc Ac lent Ci sp]
+27.7 +22.1 72 +36 +36 очень
душно
1010.7 1008.8 +31.8
СВ 5 10 км зарница 9/1 500 м
[Cb cap Ac As Ci sp]
+26.9 +22.0 75 +35 +35 очень
душно
1012.4 1010.5
СВ 4 10 км зарница 9/1 500 м
[Cb cap Ac As Ci sp]
+26.7 +21.8 75 +34 +34 очень
душно
1011.2 1009.3
С 2 10 км зарница 9/1 500 м
[Cb cap Ac und Ci sp]
+25.9 +21.8 78 +33 +33 очень
душно
1009.7 1007.8
С 2 10 км мгла 9/1 200 м
[Sc Ac und Ci fib]
+25.9 +22.1 80 +34 +34 очень
душно
1010.8 1008.9 +24.8 0.0
СВ 3 10 км мгла 9/3 540 м
[Cu med, cong Ac lent Ci sp]
+30.1 +22.7 65 +40 +44 очень
душно
1011.7 1009.9
ЮЗ 2 10 км мгла 9/3 540 м
[Cu med, cong Ac lent Ci sp]
+30.1 +23.9 69 +41 +49 опасность
перегрева
1009.8 1008.0
ЮЗ 3 10 км осадки на расстоянии 9/3 500 м
[Cb cap Ac lent Ci sp]
+31.1 +24.2 67 +43 +45 опасность
перегрева
1007.0 1005.2
СЗ 1 10 км мгла 9/3 900 м
[Sc Ac lent Ci sp]
+28.0 +24.6 82 +40 +40 очень
душно
1008.7 1006.9 +32.1
С 1 9000 м в посл. час дождь 9/4 300 м
[Cb calv Ac lent Ci sp]
+26.1 +24.5 91 +37 +37 очень
душно
1010.6 1008.7
СВ 3 10 км зарница {дождь} 9/3 500 м
[Cb calv Ac lent Ci sp]
+26.0 +22.9 83 +35 +35 очень
душно
1010.0 1008.1 3
ЮЗ 2 10 км зарница 9/4 180 м
[Cb cap Ac und Ci fib]
+25.1 +23.4 90 +34 +34 очень
душно
1008.8 1006.9
С 2 10 км мгла 9/4 50 м
[Cb cap Ac lent Ci fib]
+26.0 +21.9 78 +33 +34 очень
душно
1010.5 1008.6 +24.7 3 3.2
С 2 10 км мгла 9/3 540 м
[Cu hum Ac lent Ci sp]
+30.3 +23.4 67 +41 +46 опасность
перегрева
1011.4 1009.6
ЮЗ 2 10 км мгла 9/4 540 м
[Cu med, cong Ac lent Ci sp]
+31.5 +25.4 70 +46 +52 опасность
перегрева
1008.9 1007.1
ЮЗ 1 9000 м гроза, ливневой дождь 9/6 240 м
[Cb cap Ac und Cs]
+23.8 +23.4 98 +32 +34 очень
душно
1007.8 1005.9
СЗ 2 10 км зарница {гроза, ливн. осадки} 9/5 300 м
[Cb cap Ac lent Ci sp]
+24.4 +23.5 95 +33 +33 очень
душно
1010.3 1008.4 +32.6 57
штиль 0 10 км зарница 9/3 300 м
[Cb cap Ac lent Ci sp]
+24.7 +23.8 95 +34 +34 очень
душно
1011.9 1010.0
СВ 2 9000 м зарница 9/3 500 м
[Cb cap Ac lent Ci sp]
+24.8 +21.9 84 +32 +32 очень
душно
1010.7 1008.8
СВ 1 9000 м зарница 9/3 500 м
[Cb cap Ac lent Ci sp]
+24.8 +22.1 85 +32 +32 очень
душно
1009.6 1007.7
СВ 3 10 км мгла 9/3 540 м
[Cu med, cong Ac lent Ci sp]
+25.5 +21.5 79 +33 +33 очень
душно
1010.7 1008.8 +23.2 57 56.8
СВ 2 10 км мгла 9/1 500 м
[Cb calv Ac trans Ci fib]
+30.3 +22.2 62 +39 +45 очень
душно
1011.4 1009.6
В 4 10 км мгла 9/3 500 м
[Cb calv Ac trans Ci fib]
+33.7 +22.1 51 +43 +47 опасность
перегрева
1009.0 1007.2
В 2 12 км мгла 9/3 500 м
[Cb cap Ac trans Ci sp]
+31.4 +22.2 58 +40 +42 очень
душно
1007.4 1005.6
З 2 10 км мгла 9/3 900 м
[Sc Ac trans Ci sp]
+28.4 +24.6 80 +40 +40 очень
душно
1009.7 1007.9 +34.1
Местоположение метеостанции Куала-Лумпур аэропорт (Малайзия): широта 2.72 долгота 101.70 высота над уровнем моря 17 м.
В архиве по умолчанию представлена погода в Куала-Лумпур аэропорту за последнюю неделю. Архивные данные за месяц целиком и за предыдущие месяцы, начиная с января 2011 года, Вы можете получить, выбрав интересующий диапазон дат из раскрывающегося списка и нажав кнопку "Найти!".
*Определитесь, кто Вы:
Внимание! Время в таблицах - всемирное. Для получения местного времени необходимо прибавить поправку, которая равна 7 ч.
Смотрите также архив погоды в соседних городах и на ближайших метеорологических станциях:
Партнеры нашего сайта:      
Пояснения к столбцам:
  • Ветер - указаны скорость ветра в м/с - средняя за 10 мин, порывы в срок и между сроками (в фигурных скобках) и направление, откуда дует ветер: С - северный,
  • СВ - северо-восточный, В - восточный, ЮВ - юго-восточный, Ю - южный, ЮЗ - юго-западный, З - западный, СЗ - северо-западный.
  • Видимость - горизонтальная дальность видимости в метрах или километрах. При видимости от 1 до 10 км при отсутствии осадков обычно наблюдается дымка, при ухудшении видимости до 1 км и менее - туман. В сухую погоду видимость может ухудшаться дымом, пылью или мглою.
  • Явления - указаны атмосферные явления, наблюдавшиеся в срок или в последний час перед сроком; фигурными скобками обозначены явления, наблюдавшиеся между сроками (за 1-3 часа до срока); квадратными скобками обозначены град или гололедные отложения с указанием их диаметра в мм.
  • Облачность - указаны через наклонную черту общая и нижняя облачность в баллах и высота нижней границы облаков в метрах; квадратными скобками обозначены формы облаков: Ci - перистые, Cs - перисто-слоистые, Cc - перисто-кучевые, Ac - высококучевые, As - высокослоистые, Sc - слоисто-кучевые, Ns - слоисто-дождевые, Cu - кучевые, Cb - кучево-дождевые. Подробнее классификацию облаков см. в Атласе облаков (PDF).
  • T - Температура воздуха - температура, измеренная на высоте 2 м над землей.
  • Td - Температура точки росы - температура, при понижении до которой содержащийся в воздухе водяной пар достигнет насыщения.
  • f - Относительная влажность воздуха - влажноcть воздуха, измеренная на высоте 2 м над землей.
  • Te - Эффективная температура - температура, которую ощущает одетый по сезону человек в тени. Характеристика душности погоды. При расчете учитывается влияние влажности воздуха и скорости ветра на теплоощущения человека.
  • Tes - Эффективная температура на солнце - температура, которую ощущает человек, с поправкой на солнечный нагрев. Характеристика знойности погоды. Зависит от высоты солнца над горизонтом, облачности и скорости ветра. Ночью, в пасмурную погоду, а также при ветре 12 м/с и более поправка равна нулю.
  • P - Атмосферное давление - приведенное к уровню моря атмосферное давление.
  • Po - Атмосферное давление - измеренное на уровне метеостанции атмосферное давление.
  • Tmin - Минимальная температура - минимум температуры воздуха на высоте 2 м над землей.
  • Tmax - Максимальная температура - максимум температуры воздуха на высоте 2 м над землей.
  • R - Количество осадков - Количество выпавших осадков за период времени, мм. При наведении курсора мыши на число - период времени, за который выпало указанное количество осадков.
  • R24 - Количество осадков - Количество выпавших осадков за 24 часа, мм.
  • S - Снежный покров - Высота снежного покрова, см. При наведении курсора мыши на число - состояние снежного покрова и степень покрытия местности в баллах.